Terug naar catalogus

CZ-4C DEB

ActiefLEO
NORAD 40342·DEBRIS·🇨🇳 China

Gelanceerd Dec 10, 2014 vanaf Jiuquan Satellite Launch Center

Loading…

Volgende Passages (komende 24 uur)

TLE

VersSource: Space-Track

Epoch: Sep 14, 2026, 00:52 UTC

1 40342U 14080E   26257.03653243  .00000008  00000-0  10791-3 0  9993
2 40342  63.3858 103.7818 0385122  10.7457 350.1507 13.44669782577225

Volg CZ-4C DEB in realtime met AllMySat

Download on the App Store